This is the latest recevied weather packets stored in our database for station/object HB9TJM-8. If no packets are shown the sender has not sent any weather packets the latest 1 day(s).
| Time | Temp. | Humidity | Pressure | Rain* | Wind** | Luminosity | Snow |
|---|---|---|---|---|---|---|---|
| 1778067689 | 6.67° C | 90% | 1009.9 hPa | 0.51 mm | - | 255 W/m² | - |
| 1778067381 | 6.67° C | 90% | 1010.6 hPa | 0.51 mm | - | 297 W/m² | - |
| 1778067073 | 6.67° C | 90% | 1010 hPa | 0.76 mm | - | 250 W/m² | - |
| 1778066458 | 6.67° C | 91% | 1010.1 hPa | 1.27 mm | - | 233 W/m² | - |
| 1778065843 | 6.11° C | 89% | 1010 hPa | 1.78 mm | - | 259 W/m² | - |
| 1778064613 | 6.11° C | 89% | 1010.4 hPa | 2.03 mm | - | 171 W/m² | - |
| 1778063998 | 6.11° C | 89% | 1010 hPa | 2.29 mm | - | 166 W/m² | - |
| 1778062768 | 5.56° C | 90% | 1010.2 hPa | 2.29 mm | - | 115 W/m² | - |
| 1778062153 | 6.11° C | 91% | 1010 hPa | 2.79 mm | - | 113 W/m² | - |
| 1778060922 | 6.11° C | 91% | 1009.9 hPa | 3.05 mm | - | 91 W/m² | - |
| 1778059999 | 6.67° C | 92% | 1009.8 hPa | 3.3 mm | - | 83 W/m² | - |
| 1778058768 | 6.67° C | 92% | 1009.2 hPa | 3.05 mm | - | 73 W/m² | - |
| 1778058153 | 7.22° C | 90% | 1009.1 hPa | 2.54 mm | - | 61 W/m² | - |
| 1778057846 | 7.22° C | 91% | 1008.9 hPa | 2.54 mm | - | 51 W/m² | - |
| 1778057538 | 7.22° C | 91% | 1009 hPa | 2.29 mm | - | 47 W/m² | - |
| 1778056615 | 7.78° C | 92% | 1009 hPa | 1.78 mm | - | 58 W/m² | - |
| 1778056307 | 7.78° C | 94% | 1008.8 hPa | 1.78 mm | - | 58 W/m² | - |
| 1778055079 | 7.78° C | 94% | 1008.2 hPa | 1.27 mm | - | 67 W/m² | - |
| 1778054464 | 7.78° C | 95% | 1008.4 hPa | 1.27 mm | - | 62 W/m² | - |
| 1778054156 | 7.78° C | 95% | 1007.9 hPa | 1.02 mm | - | 44 W/m² | - |
| 1778053848 | 7.78° C | 95% | 1008.6 hPa | 1.02 mm | - | 48 W/m² | - |
| 1778053233 | 8.33° C | 94% | 1008.3 hPa | 0.76 mm | - | 86 W/m² | - |
| 1778052617 | 7.78° C | 94% | 1008 hPa | 0.51 mm | - | 107 W/m² | - |
| 1778052310 | 7.78° C | 94% | 1008.2 hPa | 0.51 mm | - | 109 W/m² | - |
| 1778051079 | 7.78° C | 94% | 1007.8 hPa | 0.25 mm | - | 77 W/m² | - |
* Rain latest hour (hover to see other rain measurements)
** Current wind speed in m/s (hover to see current wind gust speed)